Location: Newark
(44.9861°N, 0.2536°E)
Time: 20:03:03
(UTC+00:00)

HuskySat-1 - Pass Details

Date: 17 July 2020
Orbit: 457 x 471 km, 51.6° (Epoch: 11 August)

Event Time Altitude Azimuth Distance (km) Brightness Sun altitude
Rises 01:14:26 0° 291° (WNW) 2,495 ? -22.0°
Reaches altitude 10° 01:16:48 10° 303° (WNW) 1,616 ? -21.9°
Maximum altitude 01:20:00 28° 4° (N) 899 ? -21.7°
Drops below altitude 10° 01:23:11 10° 66° (ENE) 1,608 ? -21.5°
Sets 01:25:31 0° 78° (ENE) 2,479 ? -21.4°
